Location: Hylvaty SDH
(49.9612°N, 16.4057°E)
Time: 11:53:02
(UTC+01:00)

Tiros 1 - Pass Details

Date: 02 October 2020
Orbit: 630 x 663 km, 48.4° (Epoch: 28 October)

Event Time Altitude Azimuth Distance (km) Brightness Sun altitude
Rises 18:41:37 0° 280° (W) 2,972 12.6 -2.7°
Reaches altitude 10° 18:44:00 10° 275° (W) 2,064 11.7 -3.1°
Maximum altitude 18:48:35 48° 201° (SSW) 856 8.0 -3.8°
Drops below altitude 10° 18:53:12 10° 128° (SE) 2,073 9.3 -4.6°
Enters shadow 18:55:23 - 123° (ESE) 2,905 10.0 -4.9°
Sets 18:55:36 0° 123° (ESE) 2,986 - -5.0°
